This demonstration page uses our WeatherBlox Daily Observations layout. Learn more.

Hourly Observations for June 1, 2017

Temp ( °F °C ) Dew Point ( °F °C ) Humidity (%) Winds ( mph kmh ) Pressure ( in mb ) Visibility ( mi km ) Precip ( " mm )
12:54 am 00:54 Clear 60 15.6 51 10.6 72 72 Calm 30.04 1017 10 16.0934 0 0
1:54 am 01:54 Mostly Cloudy 59 15 51 10.6 75 75 N 6 9 30.03 1017 10 16.0934 0 0
2:54 am 02:54 Cloudy 60 15.6 52 11.1 75 75 Calm 30.04 1017 10 16.0934 0 0
3:54 am 03:54 Mostly Cloudy 59 15 51 10.6 75 75 NNW 3 6 30.04 1017 10 16.0934 0 0
4:54 am 04:54 Mostly Cloudy 58 14.4 52 11.1 81 81 N 5 7 30.03 1017 10 16.0934 0 0
5:54 am 05:54 Clear 59 15 49 9.4 69 69 Calm 30.04 1017 10 16.0934 0 0
6:54 am 06:54 Mostly Cloudy 60 15.6 52 11.1 75 75 Calm 30.05 1018 10 16.0934 0 0
7:54 am 07:54 Mostly Sunny 64 17.8 53 11.7 68 68 SE 6 9 30.06 1018 10 16.0934 0 0
8:54 am 08:54 Mostly Cloudy 70 21.1 60 15.6 71 71 S 10 17 30.05 1018 10 16.0934 0 0
9:54 am 09:54 Sunny 72 22.2 61 16.1 68 68 S 10 17 30.05 1018 10 16.0934 0 0
10:54 am 10:54 Sunny 75 23.9 62 16.7 64 64 SSE 9 15 30.04 1017 10 16.0934 0 0
11:54 am 11:54 Sunny 77 25 61 16.1 58 58 S 6 9 30.03 1017 10 16.0934 0 0
12:54 pm 12:54 Mostly Sunny 79 26.1 61 16.1 54 54 S 9 15 30 1016 10 16.0934 0 0
1:54 pm 13:54 Partly Cloudy 83 28.3 60 15.6 46 46 S 10 17 29.98 1015 10 16.0934 0 0
2:54 pm 14:54 Partly Cloudy 84 28.9 61 16.1 46 46 S 12 19 29.96 1014 10 16.0934 0 0
3:54 pm 15:54 Sunny 83 28.3 59 15 44 44 SSE 15 24 29.95 1014 10 16.0934 0 0
4:54 pm 16:54 Mostly Cloudy 83 28.3 60 15.6 46 46 SSE 13 20 29.94 1014 10 16.0934 0 0
5:54 pm 17:54 Sunny 82 27.8 61 16.1 49 49 SSE 13 20 29.93 1014 10 16.0934 0 0
6:54 pm 18:54 Sunny 79 26.1 62 16.7 56 56 SSE 18 30 29.93 1014 10 16.0934 0 0
7:54 pm 19:54 Sunny 77 25 63 17.2 62 62 S 14 22 29.93 1014 10 16.0934 0 0
8:54 pm 20:54 Clear 74 23.3 64 17.8 71 71 SSE 10 17 29.94 1014 10 16.0934 0 0
9:54 pm 21:54 Clear 72 22.2 63 17.2 73 73 SSE 10 17 29.95 1014 10 16.0934 0 0
10:54 pm 22:54 Partly Cloudy 71 21.7 63 17.2 76 76 SSE 10 17 29.95 1014 10 16.0934 0 0
11:54 pm 23:54 Mostly Cloudy 71 21.7 64 17.8 79 79 SSE 9 15 29.96 1014 10 16.0934 0 0

Powered by AerisWeather